Dewpoint
37 37 36 36 37 35 24 22 7 19 23 8 9 12 12 13 11 10 7 8 8 16 13 13 10 13 17 18 14 13 18 20 18 18 20 22 23 22 20 19 12 13 13 14
39 39 39 39 37 35 28 16 15 17 18 3 2 7 7 10 11 9 8 6 8 8 4 3 3 5 9 7 8 10 8 17 10 9 13 18 26 24 24 21 18 15 15 15
37 38 38 39 38 36 30 19 13 11 13 17 15 13 6 5 9 10 8 7 6 4 4 5 6 5 5 6 7 9 12 11 10 9 8 10 16 21 20 23 18 21 18 18
30 32 34 37 38 37 31 23 18 19 10 9 10 11 10 7 6 5 6 5 4 3 9 4 2 4 4 4 5 7 8 9 6 7 7 6 2 4 7 14 18 17 20 18
35 34 34 32 34 37 32 23 23 26 19 16 13 12 11 9 6 7 7 5 7 12 6 3 5 7 9 8 6 6 8 7 5 4 0 -2 -2 -0 1 1 5 11 14 18
33 33 33 34 32 35 34 33 33 29 21 14 14 11 10 12 12 13 12 11 12 12 11 11 11 11 14 11 9 8 7 7 6 5 2 1 0 -3 -5 -3 -1 3 8 13
34 33 33 34 34 32 35 34 33 27 17 12 11 10 11 12 13 13 12 13 14 19 17 17 15 12 12 10 8 9 8 7 7 9 7 3 -0 -2 -4 -6 -7 -3 3 8
33 34 34 34 35 34 36 37 32 28 17 14 14 17 10 10 9 11 13 14 16 19 17 16 12 4 -2 -2 2 2 5 12 13 9 6 -0 -2 -2 -2 -3 -6 -3 -2 8
33 32 31 32 34 32 35 35 37 32 24 11 16 16 15 16 16 14 13 18 16 18 18 14 8 1 -1 1 1 4 19 22 16 10 6 2 -0 12 18 9 -2 -3 -0 4
31 32 32 33 33 32 35 34 36 33 25 19 20 21 22 21 21 19 17 23 19 19 15 10 7 1 2 6 5 5 8 7 6 5 7 7 12 13 16 12 10 17 5 5
29 30 33 32 34 34 34 33 34 33 27 23 29 28 26 26 22 19 20 18 21 19 15 10 7 7 6 7 11 10 8 5 2 1 1 3 7 12 10 14 15 16 20 22
31 31 34 33 33 33 33 30 35 34 31 26 29 26 25 24 23 25 24 20 19 19 17 19 15 8 12 13 6 6 5 6 6 6 4 9 16 17 19 20 19 19 22 23
35 32 33 33 33 33 36 33 31 32 28 23 24 22 25 27 23 25 22 19 25 26 26 22 21 15 14 5 8 2 3 7 9 9 6 14 16 20 23 27 21 22 27 27
33 34 34 34 34 35 35 30 33 29 28 21 24 27 28 24 19 23 26 26 30 30 28 22 16 13 9 8 10 5 10 9 9 6 12 13 12 18 24 31 32 33 29 27
34 34 34 34 35 36 34 33 34 32 29 20 21 28 24 20 18 23 27 28 27 25 19 15 14 16 11 10 7 8 13 10 7 6 14 15 15 18 23 26 28 30 29 29
34 34 33 35 37 37 33 26 32 32 33 25 19 26 18 24 19 17 19 19 19 18 14 15 13 17 10 7 7 12 15 16 17 13 18 18 18 19 21 22 24 25 25 26
34 34 34 33 34 35 28 25 30 32 32 22 15 18 15 23 23 17 15 17 16 16 13 12 9 11 10 7 5 13 15 17 17 18 17 13 17 16 19 20 22 24 24 25
33 33 33 31 34 33 26 30 31 28 25 20 14 12 14 21 21 18 18 14 13 13 11 9 6 6 8 7 12 15 16 15 16 18 18 17 17 17 18 19 20 19 19 21
31 31 31 28 24 20 24 27 28 26 22 17 12 11 10 19 21 23 22 16 10 16 10 7 5 7 6 11 13 14 15 15 16 16 16 15 15 16 16 16 16 15 15 15
30 25 17 18 23 26 21 16 17 18 19 19 12 14 14 19 17 19 20 11 10 9 7 9 7 10 12 14 15 15 15 13 14 13 13 14 13 14 13 14 15 14 14 13
27 24 22 27 23 15 16 14 12 13 12 13 13 13 13 20 15 16 18 11 9 4 3 3 3 5 11 14 14 14 13 11 10 10 11 12 13 13 13 13 13 13 13 12
29 28 28 19 14 12 5 8 9 10 10 12 12 12 13 18 22 19 16 7 5 3 6 2 2 10 14 14 13 11 9 8 8 9 10 10 11 12 13 13 13 13 12 13
21 17 15 11 11 2 5 4 6 8 12 12 14 11 13 16 21 16 12 5 5 9 3 2 9 13 13 13 11 9 8 8 7 8 9 10 10 10 11 13 14 14 14 13
17 13 4 9 7 7 9 10 11 12 14 14 13 13 12 13 12 11 5 10 4 -0 -2 3 10 13 13 11 9 9 8 9 8 9 9 10 10 9 10 11 12 13 13 14
14 13 9 10 11 14 13 14 13 13 14 13 12 13 9 10 8 7 5 2 -0 3 4 9 12 13 13 9 9 9 10 10 10 10 10 10 9 9 10 10 12 13 12 13
16 15 11 11 11 11 12 13 12 12 13 14 13 10 6 6 7 3 3 -0 1 6 10 11 9 10 11 8 8 7 8 9 10 9 8 7 9 10 9 10 10 11 12 11
15 15 15 14 14 11 10 9 10 11 14 10 11 6 6 8 3 2 6 5 8 11 11 12 10 8 8 8 7 7 7 7 7 7 7 7 9 9 7 7 8 10 10 9
Wind_Speed
24 24 25 25 26 27 21 10 7 16 21 5 3 3 6 7 6 6 7 7 10 5 7 10 15 11 9 13 14 11 7 7 12 25 21 14 22 25 28 21 23 19 20 28
25 25 24 22 21 22 15 13 7 8 18 5 9 7 7 4 8 9 7 7 5 13 15 11 9 14 12 21 12 6 10 4 10 15 21 20 11 20 27 27 27 32 26 18
24 25 26 24 20 18 11 8 7 8 3 3 5 8 8 10 5 7 5 11 15 14 13 14 14 22 21 17 15 18 15 17 22 24 29 30 24 20 25 19 11 27 33 34
26 24 24 24 23 18 10 2 4 2 9 10 13 7 12 14 14 10 13 12 14 15 15 20 22 22 22 22 22 20 16 22 23 26 27 33 36 35 37 29 24 13 24 33
24 24 24 23 21 18 4 5 4 2 13 9 12 13 11 18 18 16 18 20 19 18 23 22 25 24 25 27 22 23 26 26 26 33 32 32 39 37 37 39 37 34 38 35
22 25 24 23 23 13 4 1 2 4 7 12 11 15 17 20 21 19 19 21 22 22 22 22 22 23 26 29 30 29 28 26 29 35 36 33 35 34 39 39 35 33 37 36
25 25 25 22 20 18 5 4 5 6 14 14 16 19 22 22 23 25 27 24 22 15 20 21 22 23 27 30 30 26 28 26 26 33 33 31 33 35 37 39 39 33 32 36
26 26 24 23 23 19 12 3 1 4 12 20 20 17 22 26 24 23 23 24 19 16 15 13 12 17 19 16 10 15 16 16 10 10 21 27 34 27 30 32 38 38 35 31
25 25 23 21 20 18 11 11 7 3 8 10 25 20 21 20 19 21 18 9 6 6 6 7 7 13 14 8 9 7 9 15 17 20 24 32 32 25 38 32 38 35 33 35
24 26 24 23 21 22 14 9 4 4 8 8 15 18 14 9 11 12 15 4 4 8 6 10 13 12 9 5 12 13 16 15 15 19 25 20 16 38 30 16 14 32 28 25
24 25 26 23 23 21 13 12 4 4 4 16 8 10 14 14 11 11 16 9 4 4 5 4 5 6 6 8 13 9 7 10 12 13 20 13 43 42 13 27 51 37 32 29
24 25 26 23 22 21 15 6 6 4 4 7 12 11 15 15 14 11 7 10 10 3 3 2 4 10 9 12 6 17 6 9 12 9 15 41 36 40 47 44 46 41 29 34
26 25 26 25 22 17 8 5 6 2 3 6 4 5 12 16 15 9 7 9 3 3 1 4 3 4 11 13 7 13 19 12 9 23 9 33 45 39 45 9 26 29 25 7
28 26 25 21 16 11 6 4 7 6 3 3 3 12 14 16 18 16 13 17 7 1 3 5 9 6 11 12 6 15 16 18 20 20 17 40 29 47 41 19 14 15 20 23
27 25 21 17 13 4 3 3 2 8 3 5 4 9 14 22 24 24 20 5 2 4 6 7 7 4 6 6 8 10 21 15 18 10 28 22 28 38 40 34 27 22 28 31
26 22 17 13 8 2 1 3 3 13 5 2 5 3 13 17 27 24 26 24 21 13 7 8 6 8 6 7 9 21 27 25 22 18 26 21 26 36 39 35 34 33 33 29
25 17 12 10 6 5 4 4 10 14 5 3 3 4 10 13 10 22 22 21 18 11 9 10 9 11 4 9 13 27 28 24 27 28 24 29 36 28 35 35 34 35 37 37
23 12 5 6 7 6 1 8 10 10 2 4 4 5 4 10 6 5 8 17 18 19 11 10 12 7 7 8 22 22 25 23 29 30 28 23 25 35 38 37 36 40 37 33
15 7 5 2 3 4 5 14 5 6 8 4 6 9 5 9 3 3 0 3 9 4 16 14 10 11 11 14 20 23 25 23 25 26 27 29 32 30 31 32 32 31 30 29
10 3 1 3 4 13 4 0 3 7 7 7 7 9 5 6 6 3 1 4 4 3 7 3 8 11 14 17 16 17 20 21 21 20 28 29 28 25 25 26 23 23 23 23
5 7 4 6 12 2 4 5 7 7 4 7 8 9 12 4 5 5 6 3 3 3 6 3 5 8 16 18 18 18 19 20 20 20 20 21 21 22 23 23 23 21 22 22
4 2 3 3 8 6 6 6 4 6 5 11 11 14 8 5 4 4 6 3 3 4 2 3 3 8 14 17 18 19 19 22 22 22 22 22 21 21 19 19 20 19 18 19
2 2 4 6 7 12 7 10 4 9 10 7 14 14 7 4 3 2 4 3 4 1 3 3 4 8 13 15 15 18 19 20 20 20 20 19 20 19 19 18 18 18 18 18
6 6 8 6 6 7 4 9 10 9 9 14 13 7 4 4 4 4 4 3 2 2 2 3 6 10 12 15 15 17 19 20 20 20 19 19 19 19 17 17 17 17 17 16
6 6 6 6 3 2 7 7 7 7 9 9 6 4 3 4 4 4 3 3 3 5 3 5 11 10 9 14 16 16 16 17 17 17 17 18 18 18 17 16 15 15 15 15
5 7 3 7 4 9 9 8 9 8 9 4 2 3 2 6 4 4 5 3 4 4 5 9 11 12 12 15 16 16 15 14 14 15 16 16 15 16 16 15 14 15 14 14
4 4 3 4 3 6 10 9 9 11 6 5 3 5 4 3 3 3 4 3 4 8 9 10 12 14 14 15 16 17 17 17 16 16 15 15 14 14 13 14 15 15 13 13
Wind_Direction
351 347 348 349 355 353 349 325 324 357 339 28 1 8 339 335 316 325 316 301 288 303 310 302 287 276 316 357 349 345 12 308 275 254 249 240 247 228 230 231 232 234 262 263
352 349 346 349 354 357 341 338 312 7 336 18 351 357 316 306 322 338 331 304 314 316 300 299 290 300 299 314 311 328 347 316 315 266 248 252 260 269 260 265 249 245 235 245
355 355 354 352 352 349 339 316 330 355 341 83 339 337 325 321 296 300 298 294 296 291 289 302 290 288 295 298 292 297 289 270 257 270 288 308 297 297 306 307 291 259 245 256
346 349 352 353 349 352 318 355 17 345 318 328 320 285 296 303 308 316 305 295 293 305 300 295 290 292 299 296 292 284 266 265 269 271 277 282 285 283 284 277 277 284 282 266
346 350 345 340 349 350 287 308 329 245 287 295 300 294 268 293 294 305 296 289 287 298 292 287 297 300 295 296 298 282 273 276 278 276 276 277 279 277 275 274 267 269 274 279
341 340 343 340 337 360 311 346 272 251 268 296 289 290 299 298 295 299 289 285 293 279 280 293 298 294 283 281 283 278 275 273 271 271 269 272 269 269 271 266 265 261 266 268
340 338 338 337 330 341 315 240 262 250 272 312 303 301 302 297 293 293 293 292 287 282 298 294 286 272 266 265 266 264 268 268 267 263 274 268 261 258 260 267 269 256 247 253
340 339 337 338 335 336 333 293 221 299 298 303 304 325 311 307 304 301 301 291 275 280 279 278 272 277 272 278 305 282 275 261 257 260 258 277 272 268 270 267 255 252 249 246
339 335 333 332 336 329 334 310 249 277 295 309 322 309 310 308 307 309 321 347 267 239 265 261 269 295 315 308 309 281 254 240 250 278 280 279 286 344 340 297 252 262 237 237
343 346 342 340 334 338 337 304 208 231 286 295 327 310 308 294 296 294 313 351 244 219 255 269 282 303 345 303 305 309 311 314 292 297 291 287 28 351 320 266 274 326 279 253
345 337 335 331 333 333 335 304 279 221 275 304 18 345 337 333 335 313 317 308 190 232 250 284 342 316 314 280 38 1 22 328 321 315 298 280 344 336 341 312 306 301 295 297
338 331 330 336 333 340 348 321 15 329 238 282 319 70 47 18 351 322 322 286 288 274 303 331 298 304 310 6 23 15 357 335 313 299 293 303 302 294 291 278 264 275 281 283
333 333 338 339 340 343 7 5 8 321 285 287 119 31 15 355 1 325 275 280 251 210 331 304 266 40 3 13 47 360 347 348 308 314 321 311 313 313 313 266 228 250 258 122
341 340 339 343 346 11 33 75 35 13 296 287 105 64 21 355 1 349 284 254 286 18 15 23 45 63 27 32 13 15 346 328 326 308 305 323 335 345 350 37 78 96 96 97
342 345 348 352 354 69 107 127 90 9 354 315 351 99 11 21 22 17 27 169 144 65 65 56 53 41 20 12 23 9 352 342 346 323 328 338 333 350 8 28 38 61 80 82
345 350 357 4 21 33 200 210 119 353 350 293 1 121 14 20 31 33 48 61 61 72 77 82 67 14 52 17 20 351 348 346 356 347 337 356 3 14 16 30 40 49 59 64
347 353 6 21 33 17 36 48 319 327 313 348 26 42 356 13 48 45 48 52 55 54 59 48 53 30 39 45 22 346 348 349 358 2 360 8 15 15 20 27 33 44 51 55
347 356 42 69 84 126 115 1 355 345 48 40 38 338 320 14 349 44 47 59 55 43 57 55 48 44 50 37 357 353 353 353 3 3 9 15 14 21 20 23 24 36 35 39
349 7 110 106 31 8 340 333 338 24 38 70 25 355 348 358 325 285 76 57 62 70 58 48 47 42 41 1 354 355 355 359 350 353 6 12 21 19 20 23 24 32 32 35
351 40 56 38 11 324 299 290 26 29 29 33 30 357 326 324 328 338 140 79 68 66 38 90 50 55 28 4 354 353 353 356 358 360 8 8 12 14 17 24 25 31 31 33
27 23 26 325 318 327 32 43 31 355 40 13 357 7 335 335 329 344 23 64 59 69 18 55 38 27 360 350 355 358 358 1 5 7 8 10 13 10 11 13 18 22 26 29
340 285 305 324 21 24 50 26 13 22 8 349 346 339 331 308 299 315 10 73 52 80 32 55 42 11 351 349 351 356 1 3 3 7 6 7 8 7 6 8 10 13 18 20
104 62 50 16 359 35 32 0 357 336 347 348 334 333 338 304 334 344 19 63 62 142 48 69 43 1 348 346 348 352 358 1 2 4 5 4 4 5 6 2 4 2 9 12
54 37 33 39 33 24 354 321 310 313 309 325 320 316 335 322 352 352 54 40 36 70 74 61 11 360 345 343 347 350 349 353 354 355 355 357 359 358 1 4 0 359 0 359
55 38 46 43 357 308 324 318 313 321 319 317 313 283 319 356 35 22 15 36 51 31 43 14 351 345 339 340 344 343 342 341 343 344 345 345 351 353 352 355 357 359 357 357
57 47 33 353 340 353 355 343 332 347 328 292 262 318 40 38 20 35 15 21 28 24 350 337 331 332 331 337 337 337 335 333 332 335 337 338 343 344 338 343 353 352 348 350
48 49 18 348 302 331 339 334 334 334 313 10 350 36 13 300 55 43 11 23 353 331 319 324 324 324 322 329 328 331 329 328 329 329 330 329 329 331 335 342 345 339 340 345